Location: Newark
(50.0306°N, 2.3272°E)
Time: 06:46:32
(UTC+00:00)

Vanguard 1 - Pass Details

Date: 14 December 2019
Orbit: 650 x 3833 km, 34.2° (Epoch: 27 January)

Event Time Altitude Azimuth Distance (km) Brightness Sun altitude
Exits shadow 04:27:53 20° 231° (SW) 6,030 13.6 -29.8°
Maximum altitude 04:44:23 49° 173° (S) 4,292 13.2 -27.2°
Drops below altitude 10° 05:01:28 10° 106° (ESE) 5,526 14.9 -24.4°
Sets 05:05:10 0° 101° (E) 6,181 15.6 -23.8°
